Home > Weather > Wagga Wagga > Past weeks

Flag for Australia Weather for the Past 2 Weeks in Wagga Wagga, New South Wales, Australia

Now
68 °F

Clear.


Feels Like: 68 °F
Forecast: 65 / 88 °F
Wind: 10 mph from East

Location: Wagga Airport

Current Time: Feb 7, 2016 at 2:58:13 AM

Latest Report: Feb 7, 2016 at 2:00 AM


Visibility: N/A

Pressure: 30.01 "Hg

Humidity: 64%

Dew point: 55 °F

Location of Wagga WaggaLocation

Historic Weather in Wagga Wagga — Graph

°F

Wagga Wagga Temperature Yesterday

Maximum temperature yesterday: 84 °F (at 6:00 PM)
Minimum temperature yesterday: 59 °F (at 5:00 AM)
Average temperature yesterday: 72 °F

High & Low Weather Summary for the Past Weeks

 TemperatureHumidityPressure
High93 °F (Jan 25, 4:00 PM)94% (Jan 23, 2:00 AM)30.07 "Hg (Jan 23, 2:00 AM)
Low52 °F (Jan 30, 3:00 AM)22% (Jan 24, 5:00 PM)29.47 "Hg (Jan 30, 6:00 PM)
Average72 °F61%29.78 "Hg
* Reported Jan 23 2:00 AM — Feb 7 2:00 AM, Wagga Wagga, Weather by CustomWeather, © 2016

Note: Actual official high and low records may vary slightly from our data, if they occured in-between our weather recording intervals... More about our weather records

Advertising

Wagga Wagga Weather History for the Previous 24 Hours

 ConditionsComfort  
Time TempWeatherWind HumidityBarometerVisibility
2:00 AM
Sun, Feb 7
68 °FClear.10 mph64%30.01 "HgN/A
1:00 AM72 °FClear.8 mph53%30.01 "HgN/A
12:00 AM72 °FClear.8 mph53%30.01 "HgN/A
11:00 PM
Sat, Feb 6
75 °FClear.12 mph47%30.01 "Hg10 mi
10:00 PM75 °FClear.10 mph47%29.98 "Hg10 mi
9:00 PM77 °FClear.8 mph44%29.95 "Hg10 mi
8:00 PM81 °FSunny.7 mph39%29.95 "Hg10 mi
7:00 PM82 °FSunny.7 mph32%29.92 "Hg10 mi
6:00 PM84 °FSunny.7 mph31%29.92 "Hg10 mi
5:00 PM82 °FPassing clouds.8 mph35%29.92 "HgN/A
4:00 PM82 °FSunny.7 mph32%29.95 "Hg10 mi
3:00 PM81 °FSunny.No wind34%29.98 "Hg10 mi
2:00 PM81 °FSunny.8 mph34%30.01 "HgN/A
1:00 PM79 °FPassing clouds.9 mph37%30.01 "HgN/A
12:00 PM77 °FSunny.15 mph39%30.04 "Hg10 mi
11:00 AM75 °FSunny.17 mph41%30.04 "Hg10 mi
10:00 AM73 °FSunny.17 mph47%30.07 "Hg10 mi
9:00 AM68 °FSunny.13 mph60%30.07 "Hg10 mi
8:00 AM66 °FSunny.3 mph64%30.07 "Hg10 mi
7:00 AM59 °FSunny.3 mph82%30.04 "Hg10 mi
6:00 AM59 °FClear.No wind82%30.01 "Hg10 mi
5:00 AM59 °FClear.6 mph82%30.04 "HgN/A
4:00 AM61 °FClear.5 mph77%30.04 "HgN/A
3:00 AM63 °FClear.8 mph73%30.04 "HgN/A
2:00 AM64 °FClear.8 mph68%30.04 "HgN/A
Weather by CustomWeather, © 2016

See weather overviewHow to use our weather pages